Weather Service Report


754 
ASUS42 KTBW 021510
RWRFL 
FLORIDA REGIONAL WEATHER ROUNDUP
NATIONAL WEATHER SERVICE TAMPA BAY RUSKIN FL
1100 AM EDT THU OCT 02 2014

NOTE: "FAIR" INDICATES FEW OR NO CLOUDS BELOW 12,000 FEET WITH NO
SIGNIFICANT WEATHER AND/OR OBSTRUCTIONS TO VISIBILITY.


FLZ001>010-012>015-112-114-115-021600-
PANHANDLE FLORIDA
  
CITY           SKY/WX    TMP DP  RH WIND       PRES   REMARKS
PENSACOLA      PTSUNNY   83  73  72 SE9       30.05R                  
PENSACOLA NAS  PTSUNNY   82  73  74 SE10      30.04R                  
MILTON NAS     FAIR      81  72  74 SE8       30.05S                  
CRESTVIEW      PTSUNNY   81  72  74 SE5       30.08R                  
DUKE FIELD     MOSUNNY   82  78  87 S7        30.07R                  
VALPARAISO     MOSUNNY   81  73  77 E9        30.06R                  
MARY ESTHER    PTSUNNY   82  70  65 SE9       30.05R                  
TRI COUNTY     FAIR      82  71  69 E5        30.08S                  
PANAMA CITY    FAIR      82  72  71 SE8       30.06R                  
TYNDALL AFB    FAIR      81  78  90 SE7       30.07R                  
APALACHICOLA   FAIR      85  75  72 E8        30.06R                  

STATION/POSITION SKY/WX   TEMP    WIND        PRES    WAVE   SWELL
                          AIR SEA DIR/SP/G            HT/PER HT/PER
                          (F)     (DEG/KT/KT) (MB)    (FT/S) (FT/S)
30.1N   87.6W              82 82  170/  8/ 10 1017.1R   1/ 3
29.2N   88.2W              81 82  160/ 10/ 12 1017.3R   2/ 4
28.8N   86.0W              81 83  150/  8/ 10 1017.2R   1/ 4
PANAMA CITY BEAC           79 81  130/  9/ 10 1017.9R
CAPE SAN BLAS    NOT AVBL
TOWER C                    80      80/  6/  7 1017.9R
28.5N   84.5W              82 84  150/  2/  2 1017.7R   1/ 3

$$
FLZ011-016>038-118-127-128-134-139-239-021600-
NORTH FLORIDA
  
CITY           SKY/WX    TMP DP  RH WIND       PRES   REMARKS
MARIANNA       FAIR      81  74  79 VRB5      30.07S                  
TALLAHASSEE    PTSUNNY   80  71  74 SE6       30.08S                  
PERRY          FAIR      77  70  78 CALM      30.08S                  
CROSS CITY       N/A     83  74  74 VRB6      30.07S                  
LAKE CITY      FAIR      79  72  78 E3        30.08S                  
GAINESVILLE    PTSUNNY   82  73  74 NE8       30.07S                  
MAYPORT NAS    PTSUNNY   84  74  71 NE12      30.07S                  
JACKSONVILLE   PTSUNNY   83  74  74 NE8       30.07S                  
JAX NAS        PTSUNNY   81  72  74 N7        30.08S                  
JAX CRAIG      PTSUNNY   81  71  71 NE7       30.07S                  
JAX CECIL      NOT AVBL                                               
ST AUGUSTINE   LGT RAIN  82  74  76 E8        30.07S                  

STATION/POSITION SKY/WX   TEMP    WIND        PRES    WAVE   SWELL
                          AIR SEA DIR/SP/G            HT/PER HT/PER
                          (F)     (DEG/KT/KT) (MB)    (FT/S) (FT/S)
SHELL POINT                75      50/  3/  5   N/A
KEATON BEACH               79      90/  2/  3 1018.5S
CEDAR KEY                  77      80/  5/  6 1018.3R
FERNANDINA                 81 78   30/  5/  9 1018.1S
30.7N   81.3W                 78                N/A     2/ 8
MAYPORT                    80 79   50/ 10/ 12   N/A
31.4N   80.9W              78 79   60/ 10/ 10 1019.0R   2/ 8   2/ 8
ST AUGUSTINE               81      80/  4/  5 1018.7R

$$
FLZ040-043>046-052-053-057-058-063-144-021600-
INTERIOR CENTRAL FLORIDA
  
CITY           SKY/WX    TMP DP  RH WIND       PRES   REMARKS
OCALA          PTSUNNY   81  73  78 CALM      30.07R                  
THE VILLAGES     N/A     82  77  83 CALM      29.97S                  
LEESBURG       CLOUDY    83  74  74 NE5       30.07R                  
SANFORD        FAIR      84  75  74 CALM      30.05S                  
ORLANDO EXEC   FAIR      84  74  71 VRB3      30.05                   
ORLANDO INTL   FAIR      82  74  76 E3        30.05S                  
KISSIMMEE      MOSUNNY   84  75  74 E8        30.05F                  
WINTER HAVEN   FAIR      85  73  67 VRB3      30.06S                  
OKEECHOBEE     FAIR      82  75  78 MISG      30.05S                  

$$
FLZ041-047-054-059-064-141-147-021600-
EAST CENTRAL FLORIDA
  
CITY           SKY/WX    TMP DP  RH WIND       PRES   REMARKS
ORMOND BEACH   MOSUNNY   84  72  65 E7        30.06                   
DAYTONA BEACH  FAIR      84  73  69 E9        30.06R                  
DELAND         PTSUNNY   82  75  78 N5        30.07R                  
NEW SMYRNA BEA MOSUNNY   82  75  78 NE8       30.06R                  
JFK SPACE CTR  FAIR      84  74  72 NE8       30.04S                  
TITUSVILLE     MOSUNNY   82  75  78 N7        30.05R                  
CAPE CANAVERAL FAIR      82  76  83 E6        30.03S                  
PATRICK AFB    FAIR      84  76  77 VRB7      30.04R                  
MELBOURNE      FAIR      87  76  69 NE8       30.03S HX  97           
VERO BEACH     PTSUNNY   82  74  76 CALM      30.03S                  
FT PIERCE      FAIR      83  76  79 W6        30.04R                  
STUART         MOSUNNY   84  73  70 W7        30.05R                  

STATION/POSITION SKY/WX   TEMP    WIND        PRES    WAVE   SWELL
                          AIR SEA DIR/SP/G            HT/PER HT/PER
                          (F)     (DEG/KT/KT) (MB)    (FT/S) (FT/S)
28.5N   80.2W              81 83   70/  8/ 10 1017.2R
28.9N   78.5W              81 85   60/ 10/ 12 1017.1S   3/ 8   2/ 8
TRIDENT PIER               83 83   10/  5/  8 1016.7R
28.4N   80.5W                 83                N/A     2/13
27.6N   80.2W                 83                N/A     2/ 7

$$
FLZ050-056-061-142-242-148-248-149-249-151-251-155-255-
160-260-021600-
WEST CENTRAL FLORIDA
  
CITY           SKY/WX    TMP DP  RH WIND       PRES   REMARKS
CRYSTAL RIVER  FAIR      82  72  69 CALM      30.06S                  
INVERNESS      CLOUDY    81  52  36 CALM      30.07S                  
BROOKSVILLE    PTSUNNY   84  76  76 CALM      30.07R                  
ZEPHYRHILLS      N/A     79  77  94 CALM      30.07S                  
CLEARWATER     FAIR      82  75  79 NE6       30.05S                  
TAMPA INTL     PTSUNNY   81  74  79 W6        30.06S                  
TAMPA EXEC     CLOUDY    82  75  78 CALM      30.06S                  
PLANT CITY     FAIR      84  75  74 MISG      30.07S                  
MACDILL AFB    FAIR      83  80  89 SW6       30.06R HX  95           
ST PETERSBURG  FAIR      80  74  81 SE5       30.04S                  
SARASOTA       FAIR      83  75  77 NW3       30.04S                  
VENICE           N/A     82  77  83 MISG      30.06S                  

STATION/POSITION SKY/WX   TEMP    WIND        PRES    WAVE   SWELL
                          AIR SEA DIR/SP/G            HT/PER HT/PER
                          (F)     (DEG/KT/KT) (MB)    (FT/S) (FT/S)
CEDAR KEY                  77      80/  5/  6 1018.3R
28.5N   84.5W              82 84  150/  2/  2 1017.7R   1/ 3
27.3N   84.3W                 85                N/A     1
CLEARWATER BEACH           83 83  350/  2/  3 1017.5R
MIDDLE TAMPA BAY           79     110/  1/  2 1018.1S
VENICE                     82 85  320/  5/  5 1017.2R

$$
FLZ066-069-070-075>078-162-262-165-265-021600-
SOUTHWEST FLORIDA AND KEYS
  
CITY           SKY/WX    TMP DP  RH WIND       PRES   REMARKS
PUNTA GORDA    FAIR      86  75  69 NW5       30.07R HX  95           
FT MYERS       FAIR      80  74  81 W6        30.04S                  
SOUTHWEST INTL PTSUNNY   84  75  74 NW5       30.05S                  
NAPLES         FAIR      87  76  69 NW7       30.04S HX  97           
MARCO ISLAND   FAIR      88  75  66 W7        30.05S HX  97           
MARATHON       FAIR      89  80  74 SW5       30.05S HX 106           
KEY WEST NAS   FAIR      87  74  64 SW5       30.05S HX  95           
KEY WEST INTL  FAIR      86  76  71 S5        30.06R HX  96           

STATION/POSITION SKY/WX   TEMP    WIND        PRES    WAVE   SWELL
                          AIR SEA DIR/SP/G            HT/PER HT/PER
                          (F)     (DEG/KT/KT) (MB)    (FT/S) (FT/S)
VENICE                     82 85  320/  5/  5 1017.2R
NAPLES                     83 88  310/  2/  3 1018.2R
DRY TORTUGAS               84     110/  4/  5 1017.4R
NW FL BAY                  85        CALM     1017.4R
SAND KEY                   84     180/  5/  7 1017.7R
SOMBRERO KEY               84     230/  3/  3 1018.2F
LONG KEY                   85 87  240/  4/  4 1018.3R
MOLASSES REEF              82 86  230/  4/  5 1017.6R

$$
FLZ067-068-071>074-168-172>174-021600-
SOUTHEAST FLORIDA 
  
CITY           SKY/WX    TMP DP  RH WIND       PRES   REMARKS
W PALM BEACH   FAIR      83  76  79 W9        30.03F                  
FT LAUDER-EXEC FAIR      86  72  62 W9        30.04S                  
FT LAUDERDALE  FAIR      87  74  64 W5        30.04S HX  95           
POMPANO BEACH  FAIR      87  73  62 NW7       30.04S                  
PEMBROKE PINES FAIR      86  76  71 W7        30.05F HX  96           
OPA LOCKA      FAIR      87  75  67 W7        30.05S HX  96           
MIAMI          PTSUNNY   87  76  69 W6        30.05S HX  97           
WEST KENDALL   FAIR      88  76  67 VRB6      30.05S HX  99           
HOMESTEAD      FAIR      85  76  73 W2        30.04F HX  95           

STATION/POSITION SKY/WX   TEMP    WIND        PRES    WAVE   SWELL
                          AIR SEA DIR/SP/G            HT/PER HT/PER
                          (F)     (DEG/KT/KT) (MB)    (FT/S) (FT/S)
PORT EVERGLADES            85     260/  6/  8 1017.3
VIRGINIA KEY               85 85  250/  4/  5 1017.9F
LAKE WORTH                 83 85  290/  5/  7 1017.1F
FOWEY ROCKS                82 85  310/  3/  3 1017.8S
SETTLEMENT POINT           83     280/  9/ 10 1017.4R

$$


Return to Home page


Western Regional Climate Center, wrcc@dri.edu